sat.trackr.live / text

‹ back to catalog

STARLINK-3589

NORAD 51997 · 2022-025AT

PAYLOAD ACTIVE UNKNOWN

§ Identity

Operator
Country
US
Launch date
2022-03-09
Launch site
AFETR
Launch vehicle
Mass (kg)
RCS (m²)

Purposes: comms

External: N2YO · Heavens-Above · Gunter

§ Orbital elements

Epoch: 2026-05-24T23:32:31.911360Z

Period
95.44 min
Inclination
53.2131°
Eccentricity
0.0001815
Mean motion
15.08845079 rev/d
Perigee alt
538.5 km
Apogee alt
541.0 km
Semi-major
6,917.9 km
B*
-5.6189e-5
RAAN
36.6339°
Arg perigee
91.4942°
Mean anomaly
268.6258°
Rev number
23,242

§ Raw data

STARLINK-35891 51997U 22025AT  26144.98092490 -.00001182  00000+0 -56189-4 0  99962 51997  53.2131  36.6339 0001815  91.4942 268.6258 15.08845079232429

JSON: /api/v1/satellites/51997 · /tle

For live sub-satellite position, see the globe view (requires WebGL).

§ Visibility from observer

Set your observer location to see the next 7 days of passes ≥ 10°. The values pass through the URL so the page stays shareable.

No JS? Fill the form by hand. The geolocation button needs JavaScript.